This is the latest recevied weather packets stored in our database for station/object WB4ROX. If no packets are shown the sender has not sent any weather packets the latest 10 day(s).
| Time | Temp. | Humidity | Pressure | Rain* | Wind** | Luminosity | Snow |
|---|---|---|---|---|---|---|---|
| 1777479090 | 13.89° C | 86% | 1016.6 hPa | 0 mm | - | 253 W/m² | - |
| 1777478787 | 13.33° C | 87% | 1016.7 hPa | 0 mm | - | 416 W/m² | - |
| 1777478484 | 12.78° C | 90% | 1016.6 hPa | 0 mm | - | 970 W/m² | - |
| 1777478181 | 12.78° C | 88% | 1016.7 hPa | 0 mm | - | 263 W/m² | - |
| 1777477877 | 12.78° C | 91% | 1016.6 hPa | 0 mm | - | 357 W/m² | - |
| 1777477572 | 12.78° C | 91% | 1016.6 hPa | 0 mm | - | 288 W/m² | - |
| 1777477269 | 12.78° C | 93% | 1016.8 hPa | 0 mm | - | 312 W/m² | - |
| 1777476965 | 12.78° C | 94% | 1016.8 hPa | 0 mm | - | 600 W/m² | - |
| 1777476664 | 12.22° C | 95% | 1017 hPa | 0 mm | - | 469 W/m² | - |
| 1777476360 | 11.67° C | 94% | 1016.6 hPa | 0 mm | - | 280 W/m² | - |
| 1777476056 | 11.67° C | 94% | 1016.7 hPa | 1.78 mm | - | 94 W/m² | - |
| 1777475752 | 11.67° C | 94% | 1016.8 hPa | 1.78 mm | - | 169 W/m² | - |
| 1777475449 | 11.67° C | 93% | 1016.8 hPa | 0 mm | - | 194 W/m² | - |
| 1777475149 | 12.22° C | 93% | 1016.9 hPa | 0 mm | - | 96 W/m² | - |
| 1777474847 | 11.67° C | 94% | 1016.9 hPa | 0 mm | - | 207 W/m² | - |
| 1777474542 | 11.67° C | 93% | 1016.8 hPa | 6.1 mm | - | 109 W/m² | - |
| 1777474239 | 12.22° C | 92% | 1016.9 hPa | 7.11 mm | - | 99 W/m² | - |
| 1777473936 | 12.22° C | 90% | 1016.9 hPa | 1.27 mm | - | 87 W/m² | - |
| 1777473634 | 12.78° C | 89% | 1016.8 hPa | 0 mm | - | 117 W/m² | - |
| 1777473330 | 12.78° C | 86% | 1016.8 hPa | 0 mm | - | 34 W/m² | - |
| 1777473026 | 13.33° C | 83% | 1016.4 hPa | 0 mm | - | 54 W/m² | - |
| 1777472722 | 13.89° C | 81% | 1016.8 hPa | 0 mm | - | 83 W/m² | - |
| 1777472419 | 13.89° C | 81% | 1016.7 hPa | 0 mm | - | 559 W/m² | - |
| 1777472117 | 13.89° C | 81% | 1016.6 hPa | 0 mm | - | 486 W/m² | - |
| 1777471816 | 13.89° C | 80% | 1016.7 hPa | 0 mm | - | 217 W/m² | - |
* Rain latest hour (hover to see other rain measurements)
** Current wind speed in m/s (hover to see current wind gust speed)